CZ-4B DEB, 43661

Orbit data source: Space-Track

CZ-4B DEB, 43661 is space debris in SSO originally from a launch on Wed, 24 Oct 2018 UTC launched from the Taiyaun Space Center, China (TSC). Debris objects in space refer to the collection of defunct objects orbiting the Earth. Examples of debris include non-operational satellites, rocket bodies, and fragments generated from explosions, collisions, or faulty payload assembly.

Loading next visibility...
Identifier
43661, 2018-081E
Orbit
SSO
Last TLE update
16 hours ago
Origin
Manufacturer
SAST
Mission
Spacecraft
Bus & Motor
Unknown
Mass
Unknown
Launch date (UTC)
2018-10-24 (7 years ago)
Launch vehicle
Unknown
Launch site
Taiyaun Space Center, China (TSC)
Object type
Payload
Rocket body
Debris
Shape & HBR
Unknown
Radar Cross Section
Small (<0.1 m²)

Expand to show TLE details & history

TLE from 16 hours ago
0 CZ-4B DEB
1 43661U 18081E   25186.29800637  .00000126  00000-0  13933-3 0  9996
2 43661  99.1620 217.4917 0012918 190.5693 169.5195 13.89347145339437
Epoch: 2025-07-05T07:09Z
TLE epoch observation values (Epoch: 2025-07-05T07:09:07.75Z)
Latitude
-0.00005°
Longitude
-173.32864°
Altitude
943.064 km
Speed
7.376 km/s
True Right ascension
14h 29m 58s
True Declination
0° 00' 00"
Sunlit
Object was in daylight at epoch
Visualization orbit readout
Latitude
-3.2395°
Longitude
-172.1716°
Altitude
943.493 km
Speed
7.375 km/s
Apparent Right ascension
17h 19m 30s
Apparent Declination
-35° 03' 56"
Sunlit
Object is in daylight
Visualization observer readout
Local Sidereal Time
10:37:44
Azimuth
113.228° SE
Elevation
-28.843°
Doppler factor
1
Orbital elements
Apogee altitude
937.579 km
Perigee altitude
918.703 km
Semi-major axis
7,306.278 km
Eccentricity
0.00129
Inclination
99.162°
RAAN
217.4917°
Arg. of periapsis
190.5693°
True anomaly
Unknown
Mean anomaly
169.5195°
Eccentric anomaly
Unknown
Mean motion
3.47535 °/min
Orbital period
103.59 mins
BSTAR
0.00013933
Loading maneuver chart data...
Loading SW <> Apogee altitude chart data...
Loading historical data...
Loading historical data...
Loading historical data...
Loading historical data...
Loading historical data...
Loading historical data...
Loading historical data...

CZ-4B DEB Visibility forecast

Observer location: undefined°, undefined°

Span
Click to sort rows by Start time (UTC) header in descending order
Start Az.
Max El. time (UTC)
Max El. Az.
Max El.
End time (UTC)
End Az.
7 mins2025-07-06 00:36:30.267Z96.186° ESE2025-07-06 00:39:30.267Z62.003° ENE18.003°2025-07-06 00:43:30.267Z18.652° NNE
10 mins2025-07-06 02:16:30.267Z176.661° S2025-07-06 02:21:30.267Z270.128° WNW42.629°2025-07-06 02:26:30.267Z339.292° N
10 mins2025-07-06 14:51:30.267Z19.687° NNE2025-07-06 14:56:30.267Z138.088° SSE43.306°2025-07-06 15:01:30.267Z187.97° SSW
5 mins2025-07-06 16:35:30.267Z326.215° NNW2025-07-06 16:37:30.267Z303.021° NW16.356°2025-07-06 16:40:30.267Z268.85° W
|